TimeCDT,TemperatureF,Dew PointF,Humidity,Sea Level PressureIn,VisibilityMPH,Wind Direction,Wind SpeedMPH,Gust SpeedMPH,PrecipitationIn,Events,Conditions,WindDirDegrees,DateUTC
12:15 AM,76.3,68.9,78,29.96,10.0,SSE,11.5,-,N/A,,Clear,150,2013-08-24 05:15:00
12:35 AM,76.1,68.9,78,29.96,10.0,SSE,12.7,-,N/A,,Clear,150,2013-08-24 05:35:00
12:55 AM,75.6,68.5,79,29.96,10.0,SSE,12.7,-,N/A,,Clear,150,2013-08-24 05:55:00
1:15 AM,75.4,68.2,78,29.97,10.0,SSE,12.7,-,N/A,,Clear,160,2013-08-24 06:15:00
1:35 AM,75.2,68.0,78,29.97,10.0,SSE,11.5,-,N/A,,Clear,160,2013-08-24 06:35:00
1:55 AM,75.2,67.5,77,29.97,10.0,SSE,12.7,-,N/A,,Clear,160,2013-08-24 06:55:00
2:15 AM,74.8,66.9,76,29.96,10.0,SSE,12.7,-,N/A,,Clear,160,2013-08-24 07:15:00
2:35 AM,74.8,65.8,73,29.97,10.0,SSE,11.5,-,N/A,,Clear,160,2013-08-24 07:35:00
2:55 AM,74.3,65.1,73,29.97,10.0,SSE,9.2,-,N/A,,Clear,160,2013-08-24 07:55:00
3:15 AM,74.3,64.6,72,29.97,10.0,SSE,10.4,-,N/A,,Clear,160,2013-08-24 08:15:00
3:35 AM,74.7,64.4,70,29.97,10.0,SSE,10.4,-,N/A,,Clear,160,2013-08-24 08:35:00
3:55 AM,74.5,64.4,71,29.97,10.0,SSE,11.5,-,N/A,,Clear,160,2013-08-24 08:55:00
4:15 AM,74.7,63.9,69,29.97,10.0,SSE,10.4,-,N/A,,Clear,160,2013-08-24 09:15:00
4:35 AM,74.7,63.5,68,29.97,10.0,SSE,10.4,-,N/A,,Clear,150,2013-08-24 09:35:00
4:55 AM,73.9,63.5,70,29.97,10.0,SSE,11.5,-,N/A,,Clear,150,2013-08-24 09:55:00
5:15 AM,73.0,63.5,72,29.97,10.0,SSE,9.2,-,N/A,,Clear,160,2013-08-24 10:15:00
5:35 AM,73.0,63.5,72,29.97,10.0,SSE,13.8,-,N/A,,Clear,160,2013-08-24 10:35:00
5:55 AM,72.5,63.1,72,29.96,10.0,South,12.7,-,N/A,,Clear,170,2013-08-24 10:55:00
6:15 AM,72.5,63.5,73,29.97,10.0,South,15.0,-,N/A,,Clear,180,2013-08-24 11:15:00
6:35 AM,72.5,63.5,73,29.97,10.0,South,17.3,23.0,N/A,,Clear,180,2013-08-24 11:35:00
6:55 AM,72.0,63.5,75,29.98,10.0,South,16.1,-,N/A,,Clear,180,2013-08-24 11:55:00
7:15 AM,71.6,63.5,76,29.98,10.0,South,16.1,20.7,N/A,,Clear,180,2013-08-24 12:15:00
7:35 AM,71.8,63.7,76,29.99,10.0,South,16.1,20.7,N/A,,Clear,190,2013-08-24 12:35:00
7:55 AM,72.7,64.0,74,29.99,10.0,South,13.8,-,N/A,,Clear,190,2013-08-24 12:55:00
8:15 AM,73.8,64.4,72,30.00,10.0,South,13.8,-,N/A,,Clear,190,2013-08-24 13:15:00
8:35 AM,74.8,64.6,70,30.00,10.0,South,15.0,-,N/A,,Clear,190,2013-08-24 13:35:00
8:55 AM,75.7,64.6,68,30.00,10.0,South,16.1,19.6,N/A,,Clear,190,2013-08-24 13:55:00
9:15 AM,77.0,64.8,66,30.00,10.0,SSW,17.3,20.7,N/A,,Clear,200,2013-08-24 14:15:00
9:35 AM,78.4,65.1,63,30.00,10.0,South,17.3,-,N/A,,Clear,190,2013-08-24 14:35:00
9:55 AM,80.6,64.9,59,30.01,10.0,South,17.3,-,N/A,,Clear,190,2013-08-24 14:55:00
10:15 AM,81.7,64.9,57,30.01,10.0,South,16.1,-,N/A,,Clear,190,2013-08-24 15:15:00
10:35 AM,83.5,64.8,53,30.01,10.0,South,16.1,-,N/A,,Clear,180,2013-08-24 15:35:00
10:55 AM,84.9,64.9,51,30.02,10.0,South,15.0,-,N/A,,Clear,190,2013-08-24 15:55:00
11:15 AM,86.0,64.6,49,30.02,10.0,South,15.0,-,N/A,,Clear,180,2013-08-24 16:15:00
11:35 AM,87.3,64.2,46,30.02,10.0,South,15.0,-,N/A,,Clear,180,2013-08-24 16:35:00
11:55 AM,88.3,64.4,45,30.02,10.0,South,16.1,-,N/A,,Clear,170,2013-08-24 16:55:00
12:15 PM,89.1,64.9,45,30.01,10.0,SSE,15.0,19.6,N/A,,Clear,160,2013-08-24 17:15:00
12:35 PM,90.0,64.8,43,30.00,10.0,SSE,15.0,-,N/A,,Clear,150,2013-08-24 17:35:00
12:55 PM,91.6,64.8,41,30.00,10.0,SSE,17.3,-,N/A,,Clear,160,2013-08-24 17:55:00
1:15 PM,92.8,64.2,39,29.99,10.0,SE,16.1,-,N/A,,Clear,140,2013-08-24 18:15:00
1:35 PM,95.0,63.5,35,29.98,10.0,SSE,19.6,23.0,N/A,,Clear,150,2013-08-24 18:35:00
1:55 PM,95.4,63.7,35,29.98,10.0,SSE,19.6,24.2,N/A,,Clear,150,2013-08-24 18:55:00
2:15 PM,96.8,62.8,32,29.97,10.0,SSE,21.9,27.6,N/A,,Clear,160,2013-08-24 19:15:00
2:35 PM,97.5,59.7,28,29.97,10.0,South,23.0,29.9,N/A,,Clear,180,2013-08-24 19:35:00
2:55 PM,97.7,61.0,30,29.97,10.0,South,17.3,26.5,N/A,,Clear,170,2013-08-24 19:55:00
3:15 PM,97.7,61.3,30,29.97,10.0,SSE,19.6,26.5,N/A,,Scattered Clouds,160,2013-08-24 20:15:00
3:35 PM,97.3,60.6,30,29.96,10.0,South,23.0,31.1,N/A,,Scattered Clouds,170,2013-08-24 20:35:00
3:55 PM,98.4,60.3,28,29.96,10.0,South,19.6,24.2,N/A,,Scattered Clouds,170,2013-08-24 20:55:00
4:15 PM,99.5,56.5,24,29.95,10.0,South,19.6,27.6,N/A,,Scattered Clouds,180,2013-08-24 21:15:00
4:35 PM,99.7,57.4,24,29.94,10.0,South,20.7,29.9,N/A,,Clear,180,2013-08-24 21:35:00
4:55 PM,98.4,56.7,25,29.94,10.0,South,20.7,28.8,N/A,,Clear,170,2013-08-24 21:55:00
5:15 PM,98.1,56.7,25,29.94,10.0,South,21.9,27.6,N/A,,Scattered Clouds,170,2013-08-24 22:15:00
5:35 PM,97.5,57.6,26,29.94,10.0,South,17.3,23.0,N/A,,Scattered Clouds,170,2013-08-24 22:35:00
5:55 PM,97.0,57.2,26,29.94,10.0,South,18.4,23.0,N/A,,Scattered Clouds,180,2013-08-24 22:55:00
6:15 PM,96.8,56.7,26,29.94,10.0,South,20.7,25.3,N/A,,Scattered Clouds,170,2013-08-24 23:15:00
6:35 PM,95.7,55.6,26,29.94,10.0,South,20.7,29.9,N/A,,Scattered Clouds,170,2013-08-24 23:35:00
6:55 PM,95.0,55.9,27,29.94,10.0,South,20.7,27.6,N/A,,Scattered Clouds,170,2013-08-24 23:55:00
7:15 PM,93.6,56.3,28,29.94,10.0,South,18.4,-,N/A,,Clear,170,2013-08-25 00:15:00
7:35 PM,92.3,56.3,30,29.95,10.0,South,15.0,-,N/A,,Clear,170,2013-08-25 00:35:00
7:55 PM,90.1,56.7,32,29.95,10.0,South,12.7,-,N/A,,Clear,170,2013-08-25 00:55:00
8:15 PM,87.4,57.9,37,29.95,10.0,SSE,10.4,-,N/A,,Clear,150,2013-08-25 01:15:00
8:35 PM,85.3,59.9,42,29.96,10.0,SSE,12.7,-,N/A,,Clear,160,2013-08-25 01:35:00
8:55 PM,85.5,60.8,43,29.97,10.0,SSE,12.7,-,N/A,,Clear,150,2013-08-25 01:55:00
9:15 PM,83.1,61.7,48,29.98,10.0,SSE,12.7,-,N/A,,Clear,150,2013-08-25 02:15:00
9:35 PM,82.4,62.6,51,30.00,10.0,SSE,12.7,-,N/A,,Clear,150,2013-08-25 02:35:00
9:55 PM,81.7,63.5,54,30.00,10.0,SSE,12.7,-,N/A,,Clear,150,2013-08-25 02:55:00
10:15 PM,81.9,63.5,54,30.01,10.0,SSE,15.0,-,N/A,,Clear,160,2013-08-25 03:15:00
10:35 PM,82.4,63.5,53,30.01,10.0,SSE,16.1,21.9,N/A,,Clear,160,2013-08-25 03:35:00
10:55 PM,81.7,63.5,54,30.02,10.0,SSE,15.0,23.0,N/A,,Clear,160,2013-08-25 03:55:00
11:15 PM,81.5,63.7,55,30.02,10.0,South,16.1,-,N/A,,Clear,170,2013-08-25 04:15:00
11:35 PM,81.7,63.7,54,30.03,10.0,South,16.1,24.2,N/A,,Clear,170,2013-08-25 04:35:00
11:55 PM,81.1,63.7,55,30.03,10.0,South,16.1,21.9,N/A,,Clear,170,2013-08-25 04:55:00